TIANLIAN 2-01

Last updated on Tue Oct 28 2025 00:02:51 GMT+0000 (Coordinated Universal Time)

1 44076U 19017A 25300.56544847 -.00000096 00000+0 00000+0 0 9996 2 44076 0.0721 285.2134 0003981 300.4880 91.0996 1.00272607 24311
UTC large
Height (km)
Speed (km/s)
/
Latitude / Longitude
Inclination (degrees)
Orbital Period (minutes)
Azimuth
Elevation
Range (km)
Doppler Factor

Next 0 passes for location: London (51.5072 / 0.1276)

Sorry there are no passes over London.